Year,Month,Day,Hour,Minute,Value (Times are PST for temperature in C)
2015,07,05,00,00,19.60
2015,07,05,00,01,19.60
2015,07,05,00,02,19.50
2015,07,05,00,03,19.50
2015,07,05,00,04,19.50
2015,07,05,00,05,19.50
2015,07,05,00,06,19.40
2015,07,05,00,07,19.40
2015,07,05,00,08,19.40
2015,07,05,00,09,19.30
2015,07,05,00,10,19.40
2015,07,05,00,11,19.40
2015,07,05,00,12,19.40
2015,07,05,00,13,19.40
2015,07,05,00,14,19.40
2015,07,05,00,15,19.40
2015,07,05,00,16,19.40
2015,07,05,00,17,19.40
2015,07,05,00,18,19.40
2015,07,05,00,19,19.50
2015,07,05,00,20,19.40
2015,07,05,00,21,19.40
2015,07,05,00,22,19.50
2015,07,05,00,23,19.50
2015,07,05,00,24,19.50
2015,07,05,00,25,19.50
2015,07,05,00,26,19.60
2015,07,05,00,27,19.60
2015,07,05,00,28,19.60
2015,07,05,00,29,19.60
2015,07,05,00,30,19.60
2015,07,05,00,31,19.60
2015,07,05,00,32,19.60
2015,07,05,00,33,19.60
2015,07,05,00,34,19.60
2015,07,05,00,35,19.60
2015,07,05,00,36,19.60
2015,07,05,00,37,19.60
2015,07,05,00,38,19.60
2015,07,05,00,39,19.60
2015,07,05,00,40,19.70
2015,07,05,00,41,19.70
2015,07,05,00,42,19.70
2015,07,05,00,43,19.70
2015,07,05,00,44,19.70
2015,07,05,00,45,19.70
2015,07,05,00,46,19.70
2015,07,05,00,47,19.70
2015,07,05,00,48,19.80
2015,07,05,00,49,19.80
2015,07,05,00,50,19.80
2015,07,05,00,51,19.80
2015,07,05,00,52,19.80
2015,07,05,00,53,19.70
2015,07,05,00,54,19.70
2015,07,05,00,55,19.70
2015,07,05,00,56,19.60
2015,07,05,00,57,19.60
2015,07,05,00,58,19.60
2015,07,05,00,59,19.50
2015,07,05,01,00,19.50
2015,07,05,01,01,19.40
2015,07,05,01,02,19.40
2015,07,05,01,03,19.50
2015,07,05,01,04,19.50
2015,07,05,01,05,19.50
2015,07,05,01,06,19.60
2015,07,05,01,07,19.50
2015,07,05,01,08,19.60
2015,07,05,01,09,19.50
2015,07,05,01,10,19.60
2015,07,05,01,11,19.60
2015,07,05,01,12,19.60
2015,07,05,01,13,19.60
2015,07,05,01,14,19.60
2015,07,05,01,15,19.60
2015,07,05,01,16,19.50
2015,07,05,01,17,19.50
2015,07,05,01,18,19.50
2015,07,05,01,19,19.60
2015,07,05,01,20,19.60
2015,07,05,01,21,19.60
2015,07,05,01,22,19.50
2015,07,05,01,23,19.50
2015,07,05,01,24,19.40
2015,07,05,01,25,19.40
2015,07,05,01,26,19.40
2015,07,05,01,27,19.40
2015,07,05,01,28,19.40
2015,07,05,01,29,19.40
2015,07,05,01,30,19.40
2015,07,05,01,31,19.30
2015,07,05,01,32,19.30
2015,07,05,01,33,19.30
2015,07,05,01,34,19.30
2015,07,05,01,35,19.30
2015,07,05,01,36,19.40
2015,07,05,01,37,19.40
2015,07,05,01,38,19.50
2015,07,05,01,39,19.60
2015,07,05,01,40,19.60
2015,07,05,01,41,19.60
2015,07,05,01,42,19.60
2015,07,05,01,43,19.70
2015,07,05,01,44,19.70
2015,07,05,01,45,19.70
2015,07,05,01,46,19.80
2015,07,05,01,47,19.80
2015,07,05,01,48,19.80
2015,07,05,01,49,19.80
2015,07,05,01,50,19.80
2015,07,05,01,51,19.80
2015,07,05,01,52,19.70
2015,07,05,01,53,19.70
2015,07,05,01,54,19.60
2015,07,05,01,55,19.60
2015,07,05,01,56,19.60
2015,07,05,01,57,19.60
2015,07,05,01,58,19.60
2015,07,05,01,59,19.60
2015,07,05,02,00,19.60
2015,07,05,02,01,19.60
2015,07,05,02,02,19.60
2015,07,05,02,03,19.60
2015,07,05,02,04,19.60
2015,07,05,02,05,19.60
2015,07,05,02,06,19.60
2015,07,05,02,07,19.60
2015,07,05,02,08,19.60
2015,07,05,02,09,19.50
2015,07,05,02,10,19.50
2015,07,05,02,11,19.50
2015,07,05,02,12,19.60
2015,07,05,02,13,19.60
2015,07,05,02,14,19.70
2015,07,05,02,15,19.70
2015,07,05,02,16,19.60
2015,07,05,02,17,19.60
2015,07,05,02,18,19.60
2015,07,05,02,19,19.60
2015,07,05,02,20,19.80
2015,07,05,02,21,19.90
2015,07,05,02,22,20.10
2015,07,05,02,23,20.20
2015,07,05,02,24,20.20
2015,07,05,02,25,20.30
2015,07,05,02,26,20.30
2015,07,05,02,27,20.30
2015,07,05,02,28,20.30
2015,07,05,02,29,20.30
2015,07,05,02,30,20.30
2015,07,05,02,31,20.30
2015,07,05,02,32,20.20
2015,07,05,02,33,20.20
2015,07,05,02,34,20.20
2015,07,05,02,35,20.20
2015,07,05,02,36,20.20
2015,07,05,02,37,20.20
2015,07,05,02,38,20.30
2015,07,05,02,39,20.30
2015,07,05,02,40,20.30
2015,07,05,02,41,20.30
2015,07,05,02,42,20.30
2015,07,05,02,43,20.20
2015,07,05,02,44,20.20
2015,07,05,02,45,20.20
2015,07,05,02,46,20.20
2015,07,05,02,47,20.30
2015,07,05,02,48,20.20
2015,07,05,02,49,20.20
2015,07,05,02,50,20.30
2015,07,05,02,51,20.30
2015,07,05,02,52,20.30
2015,07,05,02,53,20.40
2015,07,05,02,54,20.40
2015,07,05,02,55,20.40
2015,07,05,02,56,20.40
2015,07,05,02,57,20.40
2015,07,05,02,58,20.30
2015,07,05,02,59,20.30
2015,07,05,03,00,20.30
2015,07,05,03,01,20.20
2015,07,05,03,02,20.10
2015,07,05,03,03,20.00
2015,07,05,03,04,19.90
2015,07,05,03,05,19.80
2015,07,05,03,06,19.70
2015,07,05,03,07,19.60
2015,07,05,03,08,19.60
2015,07,05,03,09,19.60
2015,07,05,03,10,19.60
2015,07,05,03,11,19.60
2015,07,05,03,12,19.70
2015,07,05,03,13,19.70
2015,07,05,03,14,19.70
2015,07,05,03,15,19.80
2015,07,05,03,16,19.90
2015,07,05,03,17,19.90
2015,07,05,03,18,19.90
2015,07,05,03,19,19.90
2015,07,05,03,20,19.80
2015,07,05,03,21,19.80
2015,07,05,03,22,19.70
2015,07,05,03,23,19.60
2015,07,05,03,24,19.60
2015,07,05,03,25,19.50
2015,07,05,03,26,19.50
2015,07,05,03,27,19.50
2015,07,05,03,28,19.60
2015,07,05,03,29,19.60
2015,07,05,03,30,19.60
2015,07,05,03,31,19.60
2015,07,05,03,32,19.60
2015,07,05,03,33,19.60
2015,07,05,03,34,19.60
2015,07,05,03,35,19.50
2015,07,05,03,36,19.50
2015,07,05,03,37,19.40
2015,07,05,03,38,19.40
2015,07,05,03,39,19.40
2015,07,05,03,40,19.50
2015,07,05,03,41,19.70
2015,07,05,03,42,19.80
2015,07,05,03,43,19.80
2015,07,05,03,44,19.90
2015,07,05,03,45,19.90
2015,07,05,03,46,19.90
2015,07,05,03,47,19.90
2015,07,05,03,48,20.00
2015,07,05,03,49,20.00
2015,07,05,03,50,20.10
2015,07,05,03,51,20.20
2015,07,05,03,52,20.10
2015,07,05,03,53,20.10
2015,07,05,03,54,20.10
2015,07,05,03,55,20.10
2015,07,05,03,56,20.10
2015,07,05,03,57,20.10
2015,07,05,03,58,20.20
2015,07,05,03,59,20.20
2015,07,05,04,00,20.20
2015,07,05,04,01,20.20
2015,07,05,04,02,20.20
2015,07,05,04,03,20.20
2015,07,05,04,04,20.10
2015,07,05,04,05,20.10
2015,07,05,04,06,20.00
2015,07,05,04,07,20.00
2015,07,05,04,08,20.00
2015,07,05,04,09,20.10
2015,07,05,04,10,20.20
2015,07,05,04,11,20.20
2015,07,05,04,12,20.20
2015,07,05,04,13,20.20
2015,07,05,04,14,20.20
2015,07,05,04,15,20.20
2015,07,05,04,16,20.20
2015,07,05,04,17,20.20
2015,07,05,04,18,20.20
2015,07,05,04,19,20.30
2015,07,05,04,20,20.30
2015,07,05,04,21,20.30
2015,07,05,04,22,20.20
2015,07,05,04,23,20.20
2015,07,05,04,24,20.00
2015,07,05,04,25,19.90
2015,07,05,04,26,19.80
2015,07,05,04,27,19.60
2015,07,05,04,28,19.60
2015,07,05,04,29,19.50
2015,07,05,04,30,19.40
2015,07,05,04,31,19.40
2015,07,05,04,32,19.30
2015,07,05,04,33,19.30
2015,07,05,04,34,19.20
2015,07,05,04,35,19.20
2015,07,05,04,36,19.10
2015,07,05,04,37,19.10
2015,07,05,04,38,19.10
2015,07,05,04,39,19.00
2015,07,05,04,40,19.00
2015,07,05,04,41,19.00
2015,07,05,04,42,19.00
2015,07,05,04,43,19.00
2015,07,05,04,44,19.00
2015,07,05,04,45,19.00
2015,07,05,04,46,19.00
2015,07,05,04,47,19.00
2015,07,05,04,48,19.00
2015,07,05,04,49,18.90
2015,07,05,04,50,18.90
2015,07,05,04,51,18.90
2015,07,05,04,52,18.90
2015,07,05,04,53,18.90
2015,07,05,04,54,18.90
2015,07,05,04,55,19.00
2015,07,05,04,56,19.00
2015,07,05,04,57,19.10
2015,07,05,04,58,19.10
2015,07,05,04,59,19.10
2015,07,05,05,00,19.10
2015,07,05,05,01,19.20
2015,07,05,05,02,19.20
2015,07,05,05,03,19.20
2015,07,05,05,04,19.20
2015,07,05,05,05,19.20
2015,07,05,05,06,19.20
2015,07,05,05,07,19.20
2015,07,05,05,08,19.00
2015,07,05,05,09,18.90
2015,07,05,05,10,18.90
2015,07,05,05,11,18.80
2015,07,05,05,12,18.80
2015,07,05,05,13,18.80
2015,07,05,05,14,18.80
2015,07,05,05,15,18.80
2015,07,05,05,16,18.80
2015,07,05,05,17,18.80
2015,07,05,05,18,18.90
2015,07,05,05,19,19.10
2015,07,05,05,20,19.20
2015,07,05,05,21,19.40
2015,07,05,05,22,19.40
2015,07,05,05,23,19.50
2015,07,05,05,24,19.40
2015,07,05,05,25,19.40
2015,07,05,05,26,19.40
2015,07,05,05,27,19.40
2015,07,05,05,28,19.40
2015,07,05,05,29,19.40
2015,07,05,05,30,19.30
2015,07,05,05,31,19.30
2015,07,05,05,32,19.30
2015,07,05,05,33,19.30
2015,07,05,05,34,19.20
2015,07,05,05,35,19.20
2015,07,05,05,36,19.10
2015,07,05,05,37,19.10
2015,07,05,05,38,19.10
2015,07,05,05,39,19.10
2015,07,05,05,40,19.10
2015,07,05,05,41,19.10
2015,07,05,05,42,19.10
2015,07,05,05,43,19.10
2015,07,05,05,44,19.10
2015,07,05,05,45,19.00
2015,07,05,05,46,19.00
2015,07,05,05,47,18.90
2015,07,05,05,48,18.90
2015,07,05,05,49,18.80
2015,07,05,05,50,18.70
2015,07,05,05,51,18.70
2015,07,05,05,52,18.70
2015,07,05,05,53,18.60
2015,07,05,05,54,18.60
2015,07,05,05,55,18.60
2015,07,05,05,56,18.60
2015,07,05,05,57,18.60
2015,07,05,05,58,18.50
2015,07,05,05,59,18.50
2015,07,05,06,00,18.40
2015,07,05,06,01,18.40
2015,07,05,06,02,18.40
2015,07,05,06,03,18.50
2015,07,05,06,04,18.50
2015,07,05,06,05,18.50
2015,07,05,06,06,18.50
2015,07,05,06,07,18.50
2015,07,05,06,08,18.60
2015,07,05,06,09,18.60
2015,07,05,06,10,18.50
2015,07,05,06,11,18.50
2015,07,05,06,12,18.50
2015,07,05,06,13,18.60
2015,07,05,06,14,18.60
2015,07,05,06,15,18.60
2015,07,05,06,16,18.60
2015,07,05,06,17,18.60
2015,07,05,06,18,18.60
2015,07,05,06,19,18.50
2015,07,05,06,20,18.50
2015,07,05,06,21,18.40
2015,07,05,06,22,18.50
2015,07,05,06,23,18.60
2015,07,05,06,24,18.60
2015,07,05,06,25,18.50
2015,07,05,06,26,18.50
2015,07,05,06,27,18.40
2015,07,05,06,28,18.40
2015,07,05,06,29,18.40
2015,07,05,06,30,18.50
2015,07,05,06,31,18.60
2015,07,05,06,32,18.70
2015,07,05,06,33,18.80
2015,07,05,06,34,18.90
2015,07,05,06,35,19.10
2015,07,05,06,36,19.30
2015,07,05,06,37,19.30
2015,07,05,06,38,19.40
2015,07,05,06,39,19.40
2015,07,05,06,40,19.50
2015,07,05,06,41,19.50
2015,07,05,06,42,19.60
2015,07,05,06,43,19.60
2015,07,05,06,44,19.60
2015,07,05,06,45,19.60
2015,07,05,06,46,19.60
2015,07,05,06,47,19.70
2015,07,05,06,48,19.80
2015,07,05,06,49,20.00
2015,07,05,06,50,20.20
2015,07,05,06,51,20.30
2015,07,05,06,52,20.30
2015,07,05,06,53,20.30
2015,07,05,06,54,20.30
2015,07,05,06,55,20.30
2015,07,05,06,56,20.30
2015,07,05,06,57,20.30
2015,07,05,06,58,20.20
2015,07,05,06,59,20.20
2015,07,05,07,00,20.20
2015,07,05,07,01,20.10
2015,07,05,07,02,20.10
2015,07,05,07,03,20.00
2015,07,05,07,04,19.90
2015,07,05,07,05,19.90
2015,07,05,07,06,19.90
2015,07,05,07,07,19.90
2015,07,05,07,08,19.90
2015,07,05,07,09,19.90
2015,07,05,07,10,19.90
2015,07,05,07,11,19.90
2015,07,05,07,12,20.00
2015,07,05,07,13,20.10
2015,07,05,07,14,20.10
2015,07,05,07,15,20.10
2015,07,05,07,16,20.10
2015,07,05,07,17,20.20
2015,07,05,07,18,20.20
2015,07,05,07,19,20.20
2015,07,05,07,20,20.20
2015,07,05,07,21,20.30
2015,07,05,07,22,20.40
2015,07,05,07,23,20.50
2015,07,05,07,24,20.50
2015,07,05,07,25,20.60
2015,07,05,07,26,20.70
2015,07,05,07,27,20.80
2015,07,05,07,28,20.80
2015,07,05,07,29,20.80
2015,07,05,07,30,20.80
2015,07,05,07,31,20.90
2015,07,05,07,32,21.00
2015,07,05,07,33,21.10
2015,07,05,07,34,21.10
2015,07,05,07,35,21.10
2015,07,05,07,36,21.10
2015,07,05,07,37,21.00
2015,07,05,07,38,21.00
2015,07,05,07,39,21.00
2015,07,05,07,40,21.00
2015,07,05,07,41,21.00
2015,07,05,07,42,21.00
2015,07,05,07,43,21.00
2015,07,05,07,44,21.00
2015,07,05,07,45,21.00
2015,07,05,07,46,20.90
2015,07,05,07,47,20.90
2015,07,05,07,48,20.80
2015,07,05,07,49,20.80
2015,07,05,07,50,20.80
2015,07,05,07,51,20.80
2015,07,05,07,52,20.80
2015,07,05,07,53,20.80
2015,07,05,07,54,20.80
2015,07,05,07,55,20.80
2015,07,05,07,56,20.90
2015,07,05,07,57,21.00
2015,07,05,07,58,21.20
2015,07,05,07,59,21.30
2015,07,05,08,00,21.40
2015,07,05,08,01,21.50
2015,07,05,08,02,21.60
2015,07,05,08,03,21.70
2015,07,05,08,04,21.80
2015,07,05,08,05,21.90
2015,07,05,08,06,22.00
2015,07,05,08,07,22.10
2015,07,05,08,08,22.20
2015,07,05,08,09,22.30
2015,07,05,08,10,22.40
2015,07,05,08,11,22.50
2015,07,05,08,12,22.60
2015,07,05,08,13,22.80
2015,07,05,08,14,22.90
2015,07,05,08,15,23.00
2015,07,05,08,16,23.10
2015,07,05,08,17,23.20
2015,07,05,08,18,23.30
2015,07,05,08,19,23.40
2015,07,05,08,20,23.50
2015,07,05,08,21,23.50
2015,07,05,08,22,23.60
2015,07,05,08,23,23.60
2015,07,05,08,24,23.70
2015,07,05,08,25,23.70
2015,07,05,08,26,23.70
2015,07,05,08,27,23.80
2015,07,05,08,28,23.80
2015,07,05,08,29,23.90
2015,07,05,08,30,23.90
2015,07,05,08,31,24.00
2015,07,05,08,32,24.00
2015,07,05,08,33,24.10
2015,07,05,08,34,24.10
2015,07,05,08,35,24.10
2015,07,05,08,36,24.20
2015,07,05,08,37,24.20
2015,07,05,08,38,24.20
2015,07,05,08,39,24.30
2015,07,05,08,40,24.30
2015,07,05,08,41,24.30
2015,07,05,08,42,24.30
2015,07,05,08,43,24.40
2015,07,05,08,44,24.40
2015,07,05,08,45,24.40
2015,07,05,08,46,24.50
2015,07,05,08,47,24.50
2015,07,05,08,48,24.60
2015,07,05,08,49,24.70
2015,07,05,08,50,24.70
2015,07,05,08,51,24.70
2015,07,05,08,52,24.80
2015,07,05,08,53,24.80
2015,07,05,08,54,24.80
2015,07,05,08,55,24.80
2015,07,05,08,56,24.80
2015,07,05,08,57,24.80
2015,07,05,08,58,24.80
2015,07,05,08,59,24.80
2015,07,05,09,00,24.80
2015,07,05,09,01,24.90
2015,07,05,09,02,24.90
2015,07,05,09,03,24.90
2015,07,05,09,04,25.00
2015,07,05,09,05,25.00
2015,07,05,09,06,25.10
2015,07,05,09,07,25.10
2015,07,05,09,08,25.10
2015,07,05,09,09,25.10
2015,07,05,09,10,25.10
2015,07,05,09,11,25.10
2015,07,05,09,12,25.10
2015,07,05,09,13,25.10
2015,07,05,09,14,25.10
2015,07,05,09,15,25.20
2015,07,05,09,16,25.20
2015,07,05,09,17,25.20
2015,07,05,09,18,25.20
2015,07,05,09,19,25.30
2015,07,05,09,20,25.30
2015,07,05,09,21,25.30
2015,07,05,09,22,25.40
2015,07,05,09,23,25.40
2015,07,05,09,24,25.40
2015,07,05,09,25,25.40
2015,07,05,09,26,25.40
2015,07,05,09,27,25.40
2015,07,05,09,28,25.40
2015,07,05,09,29,25.50
2015,07,05,09,30,25.40
2015,07,05,09,31,25.40
2015,07,05,09,32,25.50
2015,07,05,09,33,25.50
2015,07,05,09,34,25.40
2015,07,05,09,35,25.40
2015,07,05,09,36,25.40
2015,07,05,09,37,25.50
2015,07,05,09,38,25.50
2015,07,05,09,39,25.50
2015,07,05,09,40,25.50
2015,07,05,09,41,25.50
2015,07,05,09,42,25.40
2015,07,05,09,43,25.40
2015,07,05,09,44,25.40
2015,07,05,09,45,25.30
2015,07,05,09,46,25.30
2015,07,05,09,47,25.30
2015,07,05,09,48,25.30
2015,07,05,09,49,25.30
2015,07,05,09,50,25.30
2015,07,05,09,51,25.30
2015,07,05,09,52,25.30
2015,07,05,09,53,25.30
2015,07,05,09,54,25.40
2015,07,05,09,55,25.40
2015,07,05,09,56,25.50
2015,07,05,09,57,25.50
2015,07,05,09,58,25.60
2015,07,05,09,59,25.70
2015,07,05,10,00,25.80
2015,07,05,10,01,25.80
2015,07,05,10,02,25.90
2015,07,05,10,03,25.90
2015,07,05,10,04,26.00
2015,07,05,10,05,26.10
2015,07,05,10,06,26.10
2015,07,05,10,07,26.20
2015,07,05,10,08,26.20
2015,07,05,10,09,26.30
2015,07,05,10,10,26.30
2015,07,05,10,11,26.40
2015,07,05,10,12,26.40
2015,07,05,10,13,26.40
2015,07,05,10,14,26.40
2015,07,05,10,15,26.40
2015,07,05,10,16,26.50
2015,07,05,10,17,26.50
2015,07,05,10,18,26.60
2015,07,05,10,19,26.60
2015,07,05,10,20,26.60
2015,07,05,10,21,26.60
2015,07,05,10,22,26.60
2015,07,05,10,23,26.60
2015,07,05,10,24,26.60
2015,07,05,10,25,26.70
2015,07,05,10,26,26.60
2015,07,05,10,27,26.60
2015,07,05,10,28,26.50
2015,07,05,10,29,26.50
2015,07,05,10,30,26.40
2015,07,05,10,31,26.40
2015,07,05,10,32,26.50
2015,07,05,10,33,26.50
2015,07,05,10,34,26.60
2015,07,05,10,35,26.60
2015,07,05,10,36,26.70
2015,07,05,10,37,26.70
2015,07,05,10,38,26.70
2015,07,05,10,39,26.80
2015,07,05,10,40,26.70
2015,07,05,10,41,26.70
2015,07,05,10,42,26.60
2015,07,05,10,43,26.60
2015,07,05,10,44,26.60
2015,07,05,10,45,26.70
2015,07,05,10,46,26.70
2015,07,05,10,47,26.80
2015,07,05,10,48,26.80
2015,07,05,10,49,26.90
2015,07,05,10,50,26.90
2015,07,05,10,51,27.00
2015,07,05,10,52,27.10
2015,07,05,10,53,27.10
2015,07,05,10,54,27.10
2015,07,05,10,55,27.10
2015,07,05,10,56,27.10
2015,07,05,10,57,27.10
2015,07,05,10,58,27.10
2015,07,05,10,59,27.10
2015,07,05,11,00,27.10
2015,07,05,11,01,27.20
2015,07,05,11,02,27.20
2015,07,05,11,03,27.10
2015,07,05,11,04,27.00
2015,07,05,11,05,27.00
2015,07,05,11,06,27.00
2015,07,05,11,07,27.00
2015,07,05,11,08,27.10
2015,07,05,11,09,27.10
2015,07,05,11,10,27.20
2015,07,05,11,11,27.20
2015,07,05,11,12,27.20
2015,07,05,11,13,27.10
2015,07,05,11,14,27.10
2015,07,05,11,15,27.10
2015,07,05,11,16,27.10
2015,07,05,11,17,27.10
2015,07,05,11,18,27.20
2015,07,05,11,19,27.20
2015,07,05,11,20,27.20
2015,07,05,11,21,27.20
2015,07,05,11,22,27.20
2015,07,05,11,23,27.20
2015,07,05,11,24,27.20
2015,07,05,11,25,27.20
2015,07,05,11,26,27.20
2015,07,05,11,27,27.20
2015,07,05,11,28,27.20
2015,07,05,11,29,27.20
2015,07,05,11,30,27.20
2015,07,05,11,31,27.20
2015,07,05,11,32,27.20
2015,07,05,11,33,27.20
2015,07,05,11,34,27.20
2015,07,05,11,35,27.30
2015,07,05,11,36,27.30
2015,07,05,11,37,27.30
2015,07,05,11,38,27.20
2015,07,05,11,39,27.20
2015,07,05,11,40,27.20
2015,07,05,11,41,27.20
2015,07,05,11,42,27.20
2015,07,05,11,43,27.20
2015,07,05,11,44,27.20
2015,07,05,11,45,27.20
2015,07,05,11,46,27.20
2015,07,05,11,47,27.20
2015,07,05,11,48,27.30
2015,07,05,11,49,27.40
2015,07,05,11,50,27.50
2015,07,05,11,51,27.50
2015,07,05,11,52,27.60
2015,07,05,11,53,27.60
2015,07,05,11,54,27.70
2015,07,05,11,55,27.70
2015,07,05,11,56,27.70
2015,07,05,11,57,27.70
2015,07,05,11,58,27.60
2015,07,05,11,59,27.60
2015,07,05,12,00,27.60
2015,07,05,12,01,27.60
2015,07,05,12,02,27.70
2015,07,05,12,03,27.70
2015,07,05,12,04,27.80
2015,07,05,12,05,27.80
2015,07,05,12,06,27.80
2015,07,05,12,07,27.80
2015,07,05,12,08,27.90
2015,07,05,12,09,28.00
2015,07,05,12,10,28.00
2015,07,05,12,11,28.10
2015,07,05,12,12,28.10
2015,07,05,12,13,28.20
2015,07,05,12,14,28.10
2015,07,05,12,15,28.00
2015,07,05,12,16,27.90
2015,07,05,12,17,27.90
2015,07,05,12,18,27.90
2015,07,05,12,19,28.00
2015,07,05,12,20,28.10
2015,07,05,12,21,28.10
2015,07,05,12,22,28.20
2015,07,05,12,23,28.20
2015,07,05,12,24,28.10
2015,07,05,12,25,28.10
2015,07,05,12,26,28.20
2015,07,05,12,27,28.20
2015,07,05,12,28,28.20
2015,07,05,12,29,28.30
2015,07,05,12,30,28.30
2015,07,05,12,31,28.40
2015,07,05,12,32,28.40
2015,07,05,12,33,28.40
2015,07,05,12,34,28.30
2015,07,05,12,35,28.30
2015,07,05,12,36,28.20
2015,07,05,12,37,28.10
2015,07,05,12,38,28.10
2015,07,05,12,39,28.10
2015,07,05,12,40,28.00
2015,07,05,12,41,27.90
2015,07,05,12,42,27.90
2015,07,05,12,43,27.90
2015,07,05,12,44,27.90
2015,07,05,12,45,27.90
2015,07,05,12,46,27.90
2015,07,05,12,47,27.90
2015,07,05,12,48,27.90
2015,07,05,12,49,28.00
2015,07,05,12,50,28.00
2015,07,05,12,51,28.00
2015,07,05,12,52,28.00
2015,07,05,12,53,28.00
2015,07,05,12,54,28.00
2015,07,05,12,55,28.10
2015,07,05,12,56,28.10
2015,07,05,12,57,28.10
2015,07,05,12,58,28.20
2015,07,05,12,59,28.30
2015,07,05,13,00,28.40
2015,07,05,13,01,28.40
2015,07,05,13,02,28.50
2015,07,05,13,03,28.50
2015,07,05,13,04,28.60
2015,07,05,13,05,28.60
2015,07,05,13,06,28.60
2015,07,05,13,07,28.50
2015,07,05,13,08,28.50
2015,07,05,13,09,28.50
2015,07,05,13,10,28.50
2015,07,05,13,11,28.50
2015,07,05,13,12,28.40
2015,07,05,13,13,28.40
2015,07,05,13,14,28.50
2015,07,05,13,15,28.60
2015,07,05,13,16,28.70
2015,07,05,13,17,28.80
2015,07,05,13,18,28.90
2015,07,05,13,19,29.00
2015,07,05,13,20,29.00
2015,07,05,13,21,29.10
2015,07,05,13,22,29.20
2015,07,05,13,23,29.20
2015,07,05,13,24,29.20
2015,07,05,13,25,29.30
2015,07,05,13,26,29.30
2015,07,05,13,27,29.40
2015,07,05,13,28,29.50
2015,07,05,13,29,29.50
2015,07,05,13,30,29.60
2015,07,05,13,31,29.70
2015,07,05,13,32,29.70
2015,07,05,13,33,29.70
2015,07,05,13,34,29.70
2015,07,05,13,35,29.60
2015,07,05,13,36,29.60
2015,07,05,13,37,29.60
2015,07,05,13,38,29.60
2015,07,05,13,39,29.60
2015,07,05,13,40,29.50
2015,07,05,13,41,29.50
2015,07,05,13,42,29.50
2015,07,05,13,43,29.50
2015,07,05,13,44,29.50
2015,07,05,13,45,29.60
2015,07,05,13,46,29.70
2015,07,05,13,47,29.70
2015,07,05,13,48,29.60
2015,07,05,13,49,29.60
2015,07,05,13,50,29.60
2015,07,05,13,51,29.60
2015,07,05,13,52,29.60
2015,07,05,13,53,29.60
2015,07,05,13,54,29.60
2015,07,05,13,55,29.50
2015,07,05,13,56,29.50
2015,07,05,13,57,29.60
2015,07,05,13,58,29.60
2015,07,05,13,59,29.60
2015,07,05,14,00,29.70
2015,07,05,14,01,29.70
2015,07,05,14,02,29.80
2015,07,05,14,03,29.80
2015,07,05,14,04,29.80
2015,07,05,14,05,29.70
2015,07,05,14,06,29.80
2015,07,05,14,07,29.80
2015,07,05,14,08,29.80
2015,07,05,14,09,29.70
2015,07,05,14,10,29.70
2015,07,05,14,11,29.70
2015,07,05,14,12,29.70
2015,07,05,14,13,29.70
2015,07,05,14,14,29.70
2015,07,05,14,15,29.70
2015,07,05,14,16,29.60
2015,07,05,14,17,29.60
2015,07,05,14,18,29.60
2015,07,05,14,19,29.60
2015,07,05,14,20,29.60
2015,07,05,14,21,29.60
2015,07,05,14,22,29.60
2015,07,05,14,23,29.60
2015,07,05,14,24,29.60
2015,07,05,14,25,29.60
2015,07,05,14,26,29.60
2015,07,05,14,27,29.60
2015,07,05,14,28,29.70
2015,07,05,14,29,29.70
2015,07,05,14,30,29.70
2015,07,05,14,31,29.80
2015,07,05,14,32,29.80
2015,07,05,14,33,29.80
2015,07,05,14,34,29.80
2015,07,05,14,35,29.80
2015,07,05,14,36,29.70
2015,07,05,14,37,29.70
2015,07,05,14,38,29.60
2015,07,05,14,39,29.60
2015,07,05,14,40,29.60
2015,07,05,14,41,29.70
2015,07,05,14,42,29.70
2015,07,05,14,43,29.70
2015,07,05,14,44,29.70
2015,07,05,14,45,29.70
2015,07,05,14,46,29.70
2015,07,05,14,47,29.70
2015,07,05,14,48,29.70
2015,07,05,14,49,29.70
2015,07,05,14,50,29.70
2015,07,05,14,51,29.70
2015,07,05,14,52,29.80
2015,07,05,14,53,29.80
2015,07,05,14,54,29.80
2015,07,05,14,55,29.80
2015,07,05,14,56,29.80
2015,07,05,14,57,29.80
2015,07,05,14,58,29.80
2015,07,05,14,59,29.80
2015,07,05,15,00,29.80
2015,07,05,15,01,29.90
2015,07,05,15,02,29.90
2015,07,05,15,03,30.00
2015,07,05,15,04,30.10
2015,07,05,15,05,30.20
2015,07,05,15,06,30.20
2015,07,05,15,07,30.20
2015,07,05,15,08,30.20
2015,07,05,15,09,30.20
2015,07,05,15,10,30.20
2015,07,05,15,11,30.20
2015,07,05,15,12,30.30
2015,07,05,15,13,30.30
2015,07,05,15,14,30.20
2015,07,05,15,15,30.20
2015,07,05,15,16,30.20
2015,07,05,15,17,30.20
2015,07,05,15,18,30.20
2015,07,05,15,19,30.20
2015,07,05,15,20,30.20
2015,07,05,15,21,30.20
2015,07,05,15,22,30.20
2015,07,05,15,23,30.30
2015,07,05,15,24,30.30
2015,07,05,15,25,30.30
2015,07,05,15,26,30.30
2015,07,05,15,27,30.20
2015,07,05,15,28,30.10
2015,07,05,15,29,30.10
2015,07,05,15,30,30.00
2015,07,05,15,31,29.90
2015,07,05,15,32,29.90
2015,07,05,15,33,29.80
2015,07,05,15,34,29.80
2015,07,05,15,35,29.80
2015,07,05,15,36,29.80
2015,07,05,15,37,29.80
2015,07,05,15,38,29.80
2015,07,05,15,39,29.80
2015,07,05,15,40,29.80
2015,07,05,15,41,29.90
2015,07,05,15,42,29.90
2015,07,05,15,43,29.90
2015,07,05,15,44,30.00
2015,07,05,15,45,30.00
2015,07,05,15,46,30.10
2015,07,05,15,47,30.10
2015,07,05,15,48,30.20
2015,07,05,15,49,30.20
2015,07,05,15,50,30.20
2015,07,05,15,51,30.20
2015,07,05,15,52,30.20
2015,07,05,15,53,30.20
2015,07,05,15,54,30.20
2015,07,05,15,55,30.30
2015,07,05,15,56,30.30
2015,07,05,15,57,30.30
2015,07,05,15,58,30.30
2015,07,05,15,59,30.30
2015,07,05,16,00,30.40
2015,07,05,16,01,30.40
2015,07,05,16,02,30.30
2015,07,05,16,03,30.30
2015,07,05,16,04,30.30
2015,07,05,16,05,30.30
2015,07,05,16,06,30.30
2015,07,05,16,07,30.30
2015,07,05,16,08,30.40
2015,07,05,16,09,30.40
2015,07,05,16,10,30.50
2015,07,05,16,11,30.60
2015,07,05,16,12,30.60
2015,07,05,16,13,30.60
2015,07,05,16,14,30.60
2015,07,05,16,15,30.60
2015,07,05,16,16,30.60
2015,07,05,16,17,30.60
2015,07,05,16,18,30.60
2015,07,05,16,19,30.60
2015,07,05,16,20,30.60
2015,07,05,16,21,30.60
2015,07,05,16,22,30.70
2015,07,05,16,23,30.70
2015,07,05,16,24,30.80
2015,07,05,16,25,30.80
2015,07,05,16,26,30.80
2015,07,05,16,27,30.80
2015,07,05,16,28,30.80
2015,07,05,16,29,30.80
2015,07,05,16,30,30.70
2015,07,05,16,31,30.70
2015,07,05,16,32,30.60
2015,07,05,16,33,30.50
2015,07,05,16,34,30.50
2015,07,05,16,35,30.50
2015,07,05,16,36,30.50
2015,07,05,16,37,30.40
2015,07,05,16,38,30.30
2015,07,05,16,39,30.30
2015,07,05,16,40,30.20
2015,07,05,16,41,30.10
2015,07,05,16,42,30.10
2015,07,05,16,43,30.10
2015,07,05,16,44,30.10
2015,07,05,16,45,30.10
2015,07,05,16,46,30.10
2015,07,05,16,47,30.10
2015,07,05,16,48,30.20
2015,07,05,16,49,30.20
2015,07,05,16,50,30.10
2015,07,05,16,51,30.10
2015,07,05,16,52,30.10
2015,07,05,16,53,30.00
2015,07,05,16,54,30.00
2015,07,05,16,55,30.00
2015,07,05,16,56,30.00
2015,07,05,16,57,30.10
2015,07,05,16,58,30.20
2015,07,05,16,59,30.20
2015,07,05,17,00,30.30
2015,07,05,17,01,30.30
2015,07,05,17,02,30.20
2015,07,05,17,03,30.20
2015,07,05,17,04,30.20
2015,07,05,17,05,30.20
2015,07,05,17,06,30.20
2015,07,05,17,07,30.30
2015,07,05,17,08,30.40
2015,07,05,17,09,30.50
2015,07,05,17,10,30.60
2015,07,05,17,11,30.60
2015,07,05,17,12,30.70
2015,07,05,17,13,30.80
2015,07,05,17,14,30.80
2015,07,05,17,15,30.80
2015,07,05,17,16,30.90
2015,07,05,17,17,30.90
2015,07,05,17,18,31.00
2015,07,05,17,19,31.10